GFSNW_925_spd_150.txt.gz
Wind_Speed
22 21 20 18 15 12 9 5 4 8 27 9 4 13 8 11 13 8 7 4 7 4 3 3 5 10 4 4 2 4 10 6 11 18 11 7 9 14 8 4 5 10 3 5
24 23 22 21 18 13 4 3 2 10 19 10 9 13 19 9 13 7 3 6 8 1 3 3 4 9 5 6 3 3 1 3 3 2 2 3 6 4 6 14 1 4 5 5
26 25 25 22 20 16 10 1 3 3 8 7 17 17 22 19 14 9 5 6 3 2 4 4 4 2 1 5 4 2 5 5 5 5 3 5 4 5 6 7 5 5 6 4
30 28 27 25 23 19 13 3 4 4 4 11 9 18 14 25 18 17 8 6 14 6 4 2 4 2 1 2 2 6 5 3 5 9 15 17 4 4 8 6 6 8 7 10
35 34 31 29 25 21 17 4 4 3 3 5 14 18 16 22 26 15 24 12 7 11 7 7 4 2 2 3 3 2 1 5 4 4 7 6 5 12 4 1 2 3 6 8
38 37 34 31 27 24 9 13 6 1 4 5 9 12 19 26 25 9 22 18 18 15 14 5 5 4 2 3 5 3 3 5 5 7 15 2 5 7 5 4 5 6 7 8
41 40 37 34 31 31 20 8 4 4 13 9 8 11 19 26 19 20 9 23 16 14 7 6 5 5 3 5 3 3 5 4 2 3 4 8 10 6 7 10 10 9 11 4
45 43 40 37 33 32 25 17 8 3 9 9 12 17 11 19 17 15 17 17 12 4 7 2 3 2 1 7 6 5 2 5 2 3 5 5 7 5 7 8 21 11 9 7
46 47 42 37 34 31 30 24 24 4 6 10 9 6 11 5 4 8 8 4 4 5 3 4 9 8 5 4 6 10 5 3 7 3 4 6 5 7 6 5 13 8 11 8
46 41 39 36 34 33 28 12 28 8 6 11 9 7 6 3 4 3 5 6 3 4 3 5 7 9 4 9 10 7 9 5 12 8 4 6 6 7 4 9 7 7 8 8
42 42 37 35 34 32 31 22 26 20 5 5 5 4 7 7 3 6 4 4 1 3 5 3 3 3 1 0 5 8 10 8 4 5 6 8 6 3 7 6 1 4 6 6
38 35 35 34 32 31 28 9 26 31 4 3 4 16 22 23 22 6 7 5 6 5 3 3 3 3 3 3 3 3 2 6 5 7 6 6 4 4 1 5 5 4 7 5
36 34 33 32 31 29 29 19 20 20 4 4 7 9 14 26 25 4 3 3 6 5 4 4 3 2 3 3 4 1 3 4 4 3 4 5 6 0 3 4 5 7 6 7
34 33 31 29 29 27 29 20 22 22 2 3 5 6 5 10 13 8 10 7 8 5 3 3 2 2 4 3 2 4 6 5 4 2 3 1 3 6 6 6 8 7 6 8
31 29 27 26 24 25 25 24 17 26 5 4 3 8 15 5 8 15 12 5 6 3 3 2 3 2 3 1 2 3 2 4 4 4 6 5 5 7 7 8 7 8 9 5
25 23 22 23 23 24 16 2 20 28 23 3 3 2 4 10 9 9 6 4 4 3 3 2 1 2 3 3 4 5 6 5 6 5 5 6 7 7 7 8 9 8 9 8
22 22 21 22 26 26 7 5 5 35 27 3 2 2 2 7 4 3 3 5 2 3 2 1 2 2 3 2 4 5 7 6 5 5 5 5 6 6 8 7 7 7 4 8
20 18 17 23 26 18 15 38 17 33 8 2 1 2 3 5 2 2 1 2 2 2 3 1 3 1 2 4 10 5 8 9 8 9 7 7 8 6 8 6 7 7 6 5
13 14 16 7 12 6 9 24 35 25 3 2 3 4 4 2 2 2 2 2 2 2 1 2 3 2 4 9 9 11 11 10 12 12 7 7 6 9 8 8 8 7 6 6
10 12 5 3 6 35 23 9 3 3 3 2 2 2 2 4 1 1 4 1 2 0 4 1 2 4 12 9 13 11 12 13 6 4 5 6 5 8 8 10 8 9 7 7
3 3 3 5 6 8 2 3 3 2 2 1 1 3 5 1 3 3 1 2 1 0 3 3 2 4 5 9 15 14 8 6 7 8 7 6 7 10 9 7 7 7 8 6
3 7 3 3 4 4 5 2 2 2 3 1 4 3 3 1 3 3 1 2 1 3 2 1 3 3 6 8 9 9 8 8 7 5 7 5 8 6 10 9 8 7 14 17
4 4 4 3 3 6 4 2 2 1 1 2 2 1 3 2 3 3 3 3 4 1 2 3 3 3 5 7 6 11 9 12 10 10 8 12 12 15 13 9 15 20 18 15
3 2 5 2 4 1 3 4 4 4 3 4 4 2 3 2 3 3 4 4 2 2 3 5 2 1 3 5 7 10 11 11 12 10 9 12 12 10 16 19 19 20 16 15
3 3 2 2 2 2 3 3 2 2 1 4 3 2 2 1 3 1 2 2 3 5 4 2 3 4 4 4 5 8 7 7 8 8 9 9 12 11 12 15 15 18 18 15
2 3 3 2 3 3 3 4 3 2 2 2 3 2 3 2 3 3 6 5 5 4 2 2 3 4 4 5 4 6 6 7 7 8 10 11 10 10 11 14 13 13 12 12
3 0 1 2 2 3 2 2 3 2 3 2 3 4 7 1 1 3 4 5 3 3 2 2 2 5 5 5 5 5 6 7 8 10 11 11 14 15 12 7 10 11 10 9

GFSNW_925_spd_153.txt.gz
Wind_Speed
24 23 20 16 14 9 6 3 4 3 23 8 3 13 11 4 10 0 6 6 4 4 6 3 3 7 4 3 2 6 10 3 4 10 5 4 3 3 11 4 5 4 1 5
26 25 23 20 16 14 7 2 2 7 14 9 12 7 18 12 6 7 5 5 6 4 5 3 5 2 5 5 3 2 3 2 0 3 3 2 6 12 11 6 3 5 5 5
26 25 23 22 19 16 11 2 3 3 4 4 4 11 20 15 11 14 7 3 6 4 3 3 3 2 1 4 1 2 9 4 5 5 3 2 2 5 13 13 3 5 6 5
28 26 25 25 22 20 16 2 4 3 4 9 12 15 7 20 15 14 16 11 8 6 4 3 5 3 2 3 3 5 9 3 2 4 5 4 3 9 9 11 16 7 8 13
33 31 29 28 26 24 12 5 3 3 4 7 9 16 14 22 24 14 14 16 18 9 10 5 5 3 3 4 1 4 1 4 6 3 6 5 3 10 18 7 4 6 3 8
37 35 34 32 31 29 7 10 3 3 4 3 8 7 10 13 20 16 17 18 16 12 18 8 10 5 3 2 3 0 2 4 3 6 7 3 3 14 12 8 5 7 11 9
40 39 38 37 36 39 17 9 6 3 6 5 7 8 10 16 17 16 11 17 17 26 3 3 1 2 5 5 5 5 4 5 3 2 4 6 6 6 17 13 7 10 5 6
42 42 41 41 39 40 29 17 7 3 4 7 12 15 14 14 14 20 20 17 13 6 5 6 3 2 4 7 6 9 6 3 3 4 5 6 10 5 6 7 10 11 12 8
42 42 43 44 42 41 34 27 24 4 2 9 10 7 8 6 7 5 7 10 9 4 3 7 9 6 5 5 4 11 6 3 5 3 5 7 4 7 5 5 11 9 15 8
42 43 44 45 44 43 38 16 28 8 3 5 3 5 3 1 4 6 4 8 4 6 7 5 7 9 4 6 8 6 9 4 12 6 4 6 6 6 5 6 7 5 6 6
40 41 41 46 46 45 40 26 27 21 3 8 5 9 17 6 7 5 6 2 1 3 6 5 2 3 3 3 4 7 10 6 5 4 8 9 6 3 11 7 3 3 4 7
38 38 38 40 41 38 38 13 28 32 4 5 13 28 30 23 17 5 3 7 7 5 3 4 2 3 2 2 3 6 7 6 5 8 5 4 5 6 3 4 4 5 6 5
36 33 35 39 37 39 38 22 24 16 5 7 9 14 23 24 20 19 5 4 7 4 4 4 2 3 3 3 4 3 4 2 1 3 6 7 5 1 2 5 5 6 6 9
30 31 30 34 34 35 35 22 22 22 2 4 7 18 17 21 20 25 26 21 14 3 2 3 3 3 5 4 3 5 4 6 6 4 3 3 3 3 3 2 6 7 6 7
33 33 32 32 32 29 29 22 23 25 5 3 3 8 16 14 9 26 33 18 10 3 3 2 3 3 3 1 1 3 5 6 5 5 6 6 5 6 6 8 7 9 9 5
30 30 30 28 27 26 19 3 22 24 24 2 4 3 7 14 13 2 3 4 2 3 3 3 1 1 3 3 3 6 6 6 5 5 5 6 3 7 6 7 8 7 8 6
27 26 24 24 25 28 9 4 3 28 18 3 4 3 4 14 6 3 2 1 1 2 2 2 2 1 3 2 3 5 7 7 5 5 5 3 4 5 8 8 8 7 6 7
26 23 22 22 25 16 12 20 5 19 8 2 4 2 3 2 2 2 2 2 3 4 1 2 1 2 2 3 7 6 5 4 6 7 6 5 3 4 6 5 6 6 6 5
23 22 21 16 8 5 6 11 7 14 8 3 3 1 0 1 2 2 3 2 3 1 2 1 2 1 4 8 7 7 9 9 17 11 6 6 7 7 7 7 7 7 7 6
21 16 4 3 10 13 8 9 3 6 3 3 3 2 2 3 1 1 3 1 2 2 3 2 1 3 9 9 8 10 10 15 9 4 5 5 6 8 8 10 9 10 10 7
6 4 2 5 27 7 1 3 4 2 3 3 3 3 4 1 3 3 0 3 2 2 2 3 2 3 4 5 6 7 10 11 11 11 7 7 6 6 7 6 7 6 7 6
3 3 8 5 3 2 3 1 3 5 5 2 3 3 3 2 3 3 2 2 2 3 3 2 3 4 2 6 9 8 11 7 8 7 7 5 7 7 6 6 6 5 8 13
5 2 3 2 2 4 4 4 2 1 2 2 2 2 2 3 4 3 2 2 4 2 1 3 5 2 3 7 9 8 10 7 7 6 5 6 6 10 5 9 11 15 14 12
3 3 5 3 3 2 0 0 1 3 2 4 3 2 2 1 3 2 4 3 1 2 3 5 2 3 2 4 5 5 6 7 9 8 8 7 9 8 13 18 17 19 13 12
3 3 1 2 1 1 1 2 3 3 1 3 3 3 3 2 3 1 3 2 3 5 5 3 2 3 3 2 4 4 5 4 6 7 8 8 9 9 10 16 16 17 16 14
2 3 3 2 3 4 3 2 2 2 1 2 3 2 3 1 3 2 5 6 5 4 3 2 3 4 3 3 3 4 4 5 5 6 8 9 8 8 10 14 14 14 15 15
3 1 1 2 2 4 3 1 2 2 2 2 3 4 6 2 1 3 4 5 4 3 2 1 3 5 5 4 4 4 5 5 6 9 9 10 14 15 12 7 10 12 11 11

GFSNW_925_spd_159.txt.gz
Wind_Speed
21 24 22 21 19 17 15 7 2 1 11 4 3 4 6 7 8 1 4 6 6 7 5 4 3 11 7 1 4 5 3 3 4 7 2 5 7 7 9 5 6 5 6 5
19 21 26 26 24 24 12 4 1 1 7 5 10 9 9 2 5 9 6 4 10 9 4 4 3 6 6 4 2 3 1 1 3 3 2 2 6 2 7 5 2 6 5 3
19 20 24 25 23 25 14 3 1 2 1 2 7 12 13 8 9 5 7 5 6 7 4 4 4 6 7 15 1 4 5 3 4 2 3 1 2 6 6 2 3 6 5 3
23 21 21 26 27 25 14 1 4 2 3 5 10 4 5 12 12 9 11 4 17 15 11 10 5 7 6 8 8 2 4 4 5 6 8 6 3 8 7 5 5 5 3 12
27 24 24 26 29 26 8 5 3 1 2 2 3 9 18 13 11 4 6 8 4 4 12 17 16 11 1 3 9 12 4 3 5 6 14 13 7 14 13 12 13 14 15 22
31 29 27 26 29 31 5 4 3 4 1 4 4 4 3 3 3 3 5 6 8 13 16 14 12 12 14 13 11 5 2 4 3 10 5 7 9 16 14 11 14 16 13 18
36 33 32 30 32 36 12 8 5 3 3 5 7 4 3 5 7 6 11 11 6 2 13 16 12 10 12 11 11 10 5 2 3 4 4 8 1 3 11 15 17 16 14 11
38 37 35 34 34 39 27 16 7 3 3 8 11 11 11 9 8 11 13 19 14 11 8 5 5 4 5 13 16 16 13 5 3 5 5 6 10 4 6 7 8 15 18 14
41 41 39 37 36 38 33 24 24 4 3 7 11 9 11 6 4 4 9 11 10 6 3 5 6 8 7 6 4 18 16 15 8 5 8 6 0 4 2 4 12 8 12 14
43 43 43 41 39 39 36 19 30 10 3 4 6 5 7 5 3 4 4 4 5 9 4 7 7 6 6 6 7 6 5 7 14 13 10 7 9 3 6 9 5 5 7 6
46 43 43 43 43 42 40 29 32 23 4 5 7 9 6 4 4 5 1 3 2 3 6 7 6 5 5 4 3 7 11 7 6 8 9 15 8 5 13 8 4 4 3 3
43 45 43 43 43 43 43 15 33 33 5 3 14 20 24 24 15 4 4 4 3 1 3 3 5 4 4 5 4 1 6 7 4 6 5 3 5 10 7 3 3 4 2 4
40 40 41 42 42 43 44 27 25 25 3 3 4 10 17 24 30 25 6 4 5 3 3 3 3 5 3 6 5 4 5 5 4 0 7 11 14 12 8 5 6 4 3 5
38 39 38 40 39 39 40 25 27 28 3 4 5 15 21 33 30 25 27 20 15 7 3 5 4 4 5 3 2 6 3 10 6 6 7 7 9 11 8 6 5 5 3 5
34 36 39 37 36 40 35 27 30 35 6 3 3 5 14 15 20 27 27 22 13 8 4 4 8 5 7 3 1 4 5 7 5 6 7 4 5 8 6 5 7 6 7 6
30 28 36 33 31 32 18 2 12 20 9 2 2 4 4 8 22 22 15 12 9 8 5 5 5 14 4 4 3 5 11 7 10 7 2 7 7 4 4 6 6 5 7 8
21 25 26 26 35 25 5 4 11 30 15 2 3 3 4 5 7 6 5 11 3 3 3 5 8 4 6 2 3 3 4 7 6 5 2 3 2 2 4 2 5 3 3 3
25 30 42 36 31 20 9 12 23 29 6 2 2 4 2 3 3 4 4 4 4 4 3 2 3 3 3 4 6 4 2 1 3 4 3 3 2 3 4 2 2 3 3 3
38 38 31 20 7 4 7 20 18 11 2 3 3 2 3 2 1 2 3 2 2 2 2 2 1 2 3 6 3 3 3 1 3 6 5 5 3 5 4 1 1 3 5 6
36 21 7 3 4 24 15 4 2 2 3 3 3 2 3 1 2 1 2 2 2 3 3 1 2 3 6 3 3 5 6 6 3 3 4 4 6 6 6 7 6 7 6 5
4 3 3 6 22 5 1 3 2 2 3 4 4 7 6 3 4 2 1 1 1 1 0 1 2 3 2 4 4 3 4 6 6 7 10 10 7 5 5 5 5 5 6 6
6 14 10 6 2 1 3 4 3 5 4 3 3 3 3 2 2 1 1 2 2 1 1 1 2 2 1 3 7 11 12 14 14 11 7 6 6 6 5 2 2 3 5 13
8 2 5 3 2 4 6 6 3 2 3 3 3 3 2 2 2 2 1 2 1 0 2 2 2 3 4 7 7 8 8 9 5 5 5 6 5 5 5 6 9 8 10 10
2 3 2 3 3 3 3 2 2 1 1 3 3 2 1 1 3 2 3 1 2 2 2 3 2 1 1 1 3 4 5 6 5 9 7 7 8 9 15 14 9 11 9 7
3 3 4 3 1 1 1 1 2 2 2 2 2 2 1 1 4 2 3 3 2 2 3 2 1 2 2 3 3 5 4 2 3 6 6 7 7 9 10 11 11 15 17 14
2 3 2 0 1 2 1 2 2 2 1 0 0 2 2 1 4 3 3 6 5 3 3 2 3 3 2 2 3 2 4 5 8 6 7 8 7 9 11 13 15 16 16 15
3 1 2 3 1 2 2 2 0 0 1 1 1 2 2 2 1 1 3 4 3 2 2 2 4 6 5 5 5 5 2 6 6 7 10 11 11 12 11 10 12 15 15 18

GFSNW_925_spd_162.txt.gz
Wind_Speed
20 21 23 18 15 21 18 5 4 5 14 8 3 10 8 7 11 5 9 11 11 11 10 10 13 15 11 18 13 12 11 6 9 12 8 3 4 7 13 4 5 7 12 6
16 15 22 21 20 25 12 4 5 3 7 8 12 14 10 4 4 8 4 7 9 15 16 9 15 14 7 16 14 9 11 8 11 8 7 3 7 9 4 3 2 5 5 4
21 18 18 26 25 25 16 3 5 4 3 7 10 16 20 20 1 10 13 5 14 9 6 9 5 6 7 18 16 20 10 14 14 14 3 2 2 3 4 6 2 2 5 2
23 21 19 26 29 29 16 3 4 4 6 11 12 8 7 14 17 10 8 6 16 14 10 11 10 18 10 7 8 9 8 8 8 11 10 8 7 9 11 10 3 3 5 10
29 25 22 23 28 28 7 5 4 4 4 5 11 14 14 16 14 2 3 6 15 12 16 21 19 13 13 13 7 4 2 5 9 6 14 17 17 16 16 15 12 10 13 19
33 30 27 24 33 33 5 3 2 4 7 9 8 8 9 2 3 12 5 4 8 10 2 12 13 13 15 15 14 11 5 4 7 6 10 10 9 18 21 16 14 16 15 20
36 34 31 29 35 40 10 12 8 5 7 9 11 6 9 11 11 10 9 8 5 6 15 19 14 15 18 17 18 15 9 8 5 9 12 10 9 7 13 16 16 18 19 18
38 37 35 34 33 38 22 12 11 5 8 9 14 14 12 11 11 13 14 16 14 13 8 5 9 5 8 15 22 21 18 13 7 5 10 16 22 11 6 6 13 16 17 16
40 39 38 37 35 39 32 18 17 5 5 12 13 13 14 12 10 10 10 9 8 7 5 5 5 5 8 6 5 19 20 15 10 10 13 8 12 5 5 4 13 14 14 15
41 41 41 39 37 37 36 15 21 12 6 9 7 10 10 8 7 7 6 5 6 8 7 8 10 15 12 7 12 5 13 7 15 15 12 13 23 20 9 11 8 3 5 9
43 43 41 41 40 38 38 24 25 21 6 10 10 16 11 7 8 7 2 4 6 5 5 8 9 9 10 9 15 11 11 8 8 12 12 19 9 13 18 12 11 9 8 9
42 43 41 40 41 40 39 17 24 26 8 3 11 25 23 22 15 6 5 5 2 1 3 2 3 3 4 11 15 16 13 14 8 9 10 4 2 5 7 10 12 13 11 9
40 43 43 42 41 41 42 27 24 18 5 6 12 18 20 23 27 22 11 9 8 7 4 2 2 7 3 6 10 16 10 7 7 8 13 18 17 15 14 15 15 14 11 9
39 38 44 43 40 41 43 28 28 28 4 5 10 13 25 27 23 27 27 20 15 10 4 6 5 7 4 6 11 13 14 8 10 13 12 12 15 14 16 17 13 12 11 10
38 35 41 43 39 40 40 34 29 37 10 3 6 6 16 13 27 26 25 23 16 10 9 6 7 4 4 7 10 12 14 11 7 7 6 8 5 1 6 6 6 8 9 8
35 33 33 39 39 36 15 3 16 35 23 3 4 4 5 16 20 21 15 15 13 11 7 8 9 14 2 4 8 15 15 16 14 13 6 7 8 9 7 3 10 14 5 5
30 29 28 34 35 31 4 3 9 29 21 3 2 3 4 12 13 10 10 17 7 8 7 7 10 5 8 5 15 14 6 7 10 9 7 10 7 3 4 5 7 6 5 3
24 23 22 23 27 21 6 6 30 26 7 3 2 2 3 9 5 5 7 7 6 6 6 4 9 6 6 8 16 16 15 4 4 4 3 7 3 2 3 3 1 2 3 4
36 43 36 20 7 3 6 25 26 9 2 4 4 3 3 4 3 3 4 4 5 5 8 7 5 7 7 12 14 10 6 3 2 7 6 7 5 5 5 3 2 2 1 4
35 11 6 3 5 36 29 5 3 2 2 2 4 5 4 5 2 2 4 4 4 5 5 4 5 4 10 4 8 1 3 5 3 5 7 4 5 7 7 8 8 8 7 4
4 3 3 15 21 4 1 4 4 4 4 4 4 6 7 5 4 4 2 2 4 3 4 3 3 3 2 3 2 4 3 3 4 7 8 9 10 9 5 5 5 7 8 6
7 16 11 7 2 2 3 4 4 5 4 5 4 4 6 3 3 5 3 1 2 2 3 3 2 4 3 2 4 4 3 4 2 4 4 2 4 5 5 5 4 4 4 5
5 4 3 3 3 4 5 7 4 4 4 5 5 4 4 3 4 1 2 3 2 2 3 1 1 1 3 1 4 6 7 10 8 7 6 5 6 7 7 4 5 5 7 6
1 3 5 4 4 5 4 5 3 2 2 4 4 2 2 1 3 1 3 2 3 2 1 1 2 4 3 4 5 6 7 5 6 9 9 7 7 8 9 7 5 7 8 10
2 3 3 6 2 1 1 1 2 2 1 3 3 2 3 2 2 2 3 4 3 2 1 1 2 2 1 2 2 3 4 5 8 7 7 4 5 8 9 10 10 11 11 14
2 2 2 2 2 3 3 3 2 3 3 2 2 2 2 2 3 3 2 3 2 2 1 1 1 1 0 1 2 5 6 7 6 4 7 5 7 8 9 12 13 12 12 13
3 1 0 1 1 2 1 1 1 2 3 3 2 2 1 2 0 1 2 2 1 1 2 2 4 5 5 3 5 3 4 4 4 2 5 6 6 8 9 9 10 12 12 13

GFSNW_925_spd_165.txt.gz
Wind_Speed
18 18 19 26 27 22 19 4 3 11 23 10 3 9 15 5 18 5 7 6 16 18 19 11 15 16 7 14 14 16 7 8 11 17 16 11 9 9 3 4 4 10 14 15
18 18 19 22 22 25 11 3 3 11 20 10 13 16 19 19 18 18 1 4 5 11 19 15 15 15 15 14 16 12 13 6 9 16 14 12 11 15 10 5 3 4 5 1
21 20 18 23 24 20 10 3 5 4 5 11 13 21 20 15 6 7 6 5 12 15 12 17 9 17 4 6 8 15 13 13 15 15 18 4 3 6 4 3 2 3 6 12
25 24 21 21 28 20 14 4 3 6 6 12 13 11 5 16 19 15 8 4 11 11 6 14 19 10 12 11 3 0 7 5 11 16 19 24 15 13 12 9 8 5 7 13
30 27 25 22 31 21 11 4 4 3 3 12 17 16 10 15 15 2 4 4 7 11 8 7 9 13 7 11 7 5 5 3 12 13 17 17 22 23 21 20 18 13 16 21
34 32 29 26 32 28 4 5 10 4 8 11 10 12 13 14 6 8 16 15 10 15 4 11 16 16 15 17 16 12 5 4 3 11 18 14 14 21 20 21 19 19 17 20
38 36 33 30 31 38 15 12 5 3 7 10 11 9 10 13 12 10 10 7 7 5 9 16 18 17 18 18 20 17 12 10 4 9 13 14 9 5 7 13 14 18 17 18
40 38 37 34 33 39 23 15 15 5 8 8 11 12 13 11 11 12 12 13 13 10 8 8 9 7 10 20 23 23 21 15 7 5 10 14 24 15 12 3 10 12 13 14
42 40 39 37 36 40 32 19 19 8 7 11 15 11 13 12 13 15 15 10 9 7 6 7 7 6 5 4 7 21 22 19 11 8 6 7 14 4 4 5 10 11 12 13
42 42 41 39 37 38 35 17 19 11 7 11 5 8 9 11 10 10 7 8 9 12 8 9 11 14 14 12 10 5 6 13 17 16 15 11 22 20 17 10 7 8 9 3
45 42 41 40 39 38 38 24 22 21 8 11 8 13 12 9 9 9 2 3 8 6 7 8 9 9 11 13 18 17 13 5 9 11 10 13 9 12 19 17 17 17 11 10
41 45 41 41 40 38 39 16 22 24 9 3 8 18 20 19 14 6 5 5 2 1 3 3 4 8 4 8 12 13 11 5 4 5 6 11 5 9 7 11 10 11 11 13
40 43 42 41 41 40 41 27 23 16 7 7 12 16 17 21 24 19 10 9 8 8 8 6 4 6 7 10 9 10 6 13 8 16 15 18 14 12 14 14 15 15 16 15
39 40 43 41 41 38 41 28 23 22 4 4 8 15 24 24 22 23 23 19 18 11 7 7 7 8 7 11 11 13 11 12 11 18 16 17 15 15 8 10 13 18 18 15
38 34 39 41 41 39 38 27 25 28 9 2 4 4 12 16 20 25 22 23 16 10 10 7 10 10 11 11 13 16 13 16 11 8 10 9 10 2 5 11 13 11 8 9
34 35 33 39 39 38 25 2 17 29 24 3 4 2 6 13 17 19 16 13 12 10 8 8 12 18 8 5 11 18 14 16 20 16 16 11 12 10 11 11 4 8 11 14
31 32 30 32 37 34 7 3 3 37 22 2 4 4 6 13 13 11 11 20 8 7 9 11 13 11 8 12 18 18 15 23 23 6 8 12 13 8 5 7 4 5 4 9
26 24 22 32 31 19 9 3 13 32 10 2 3 3 3 9 8 9 6 5 7 7 6 6 12 11 8 6 10 14 19 20 17 11 9 9 7 5 6 5 2 5 9 10
22 30 27 18 5 3 8 23 26 14 4 4 4 5 4 5 5 2 2 4 5 5 8 11 6 6 8 11 15 14 18 15 11 6 7 8 9 9 8 8 6 4 1 4
31 14 5 2 6 35 29 5 2 3 3 4 4 5 5 5 5 3 3 3 4 5 8 5 8 14 17 18 8 9 11 6 7 8 8 7 7 6 7 9 8 8 8 5
4 3 3 27 21 3 2 3 4 4 3 4 6 10 8 6 7 3 4 3 5 3 5 6 4 7 14 7 5 4 8 7 7 6 8 9 10 9 8 6 5 5 7 6
7 17 9 6 2 2 3 5 4 5 5 6 8 7 8 4 3 6 5 3 2 2 6 3 3 3 8 7 6 5 5 5 4 5 6 7 6 6 5 4 5 7 7 7
13 4 4 4 3 5 5 8 5 5 4 5 6 5 4 4 5 4 3 3 3 3 3 2 3 7 7 4 2 2 1 3 2 3 5 6 7 11 11 7 8 7 8 10
1 4 5 5 5 5 6 7 7 3 3 5 7 2 4 4 6 1 3 1 2 2 3 2 5 5 4 2 1 1 4 4 5 6 6 7 8 7 10 9 7 6 8 10
2 3 3 6 4 1 2 1 2 3 3 4 2 3 5 3 2 3 1 2 4 4 2 5 5 6 4 3 4 5 5 5 5 6 6 6 7 6 9 13 12 11 11 10
2 3 2 2 3 4 3 4 5 2 1 2 4 4 3 3 3 4 5 3 1 3 3 3 5 5 3 4 5 5 5 6 6 5 7 8 8 7 9 10 11 12 12 13
3 1 0 3 2 3 3 2 2 2 3 4 3 3 2 2 2 2 2 1 3 3 3 3 3 3 4 4 4 3 3 4 5 6 7 7 6 5 6 6 9 10 12 13

GFSNW_925_spd_168.txt.gz
Wind_Speed
20 19 19 20 23 21 19 7 3 5 14 8 3 11 13 12 16 6 4 5 12 18 19 20 20 16 8 9 6 4 7 5 5 7 18 22 9 8 10 5 6 4 3 3
21 20 20 20 23 28 12 4 4 7 6 11 12 15 20 21 20 20 5 3 6 8 7 7 11 14 5 7 4 3 2 3 5 10 5 8 2 10 3 3 3 4 2 4
23 22 20 19 21 29 19 3 3 4 4 7 10 19 21 22 21 19 14 5 8 12 14 11 10 18 7 3 3 4 4 4 4 7 11 12 10 15 10 3 2 3 6 10
26 24 21 17 25 19 10 2 4 4 5 11 17 9 2 18 19 9 9 5 10 10 6 13 15 13 15 12 13 4 3 7 4 8 17 19 18 18 13 8 8 5 9 10
30 27 26 25 25 28 7 3 3 4 2 10 12 14 6 13 4 2 5 4 4 7 4 6 8 11 9 5 11 2 3 3 4 7 14 17 17 19 21 17 18 14 19 20
34 31 30 28 28 28 4 7 6 3 6 5 8 6 8 9 10 6 10 8 7 11 11 5 10 15 16 16 18 19 2 1 5 7 14 16 13 14 13 21 20 21 21 21
37 35 35 32 30 36 15 10 6 4 5 10 10 8 5 10 9 10 5 4 7 2 1 11 14 18 22 21 21 16 13 9 6 9 8 12 10 18 11 10 19 28 20 18
41 39 37 35 33 38 24 13 6 3 5 6 9 8 11 12 11 12 15 10 9 4 6 7 9 8 14 20 23 19 16 13 7 5 10 12 17 17 18 14 16 22 10 7
42 41 39 38 36 35 33 18 18 5 3 7 9 7 8 10 9 10 14 14 10 6 4 7 10 6 14 7 7 20 20 18 12 7 7 7 12 12 7 6 11 15 8 6
44 42 41 39 37 36 33 15 18 7 3 9 6 6 6 10 7 7 10 1 0 10 6 8 9 13 15 14 16 10 2 1 16 14 11 11 12 12 11 3 5 8 7 11
44 42 41 40 39 37 34 24 17 13 4 9 9 9 8 6 4 6 2 2 8 7 7 6 8 7 8 12 19 18 15 6 3 9 9 10 7 8 10 6 9 13 15 8
44 44 41 40 40 38 35 14 21 16 6 3 8 13 14 11 14 4 3 4 4 4 3 3 2 3 4 10 11 15 12 3 4 1 4 22 23 13 8 10 6 4 8 15
44 41 42 38 40 39 38 23 19 11 4 7 11 12 12 15 15 12 7 7 6 6 8 3 3 7 6 6 8 7 6 12 4 7 3 19 19 12 13 16 8 10 11 13
38 39 43 38 38 39 40 25 17 17 4 3 6 12 21 21 16 17 18 16 18 11 7 7 6 8 8 9 13 13 9 12 11 15 15 17 15 11 10 7 7 10 13 12
37 37 40 38 38 37 36 23 20 23 6 1 4 12 12 17 18 21 21 18 14 8 7 7 9 9 10 10 12 13 11 13 10 13 14 12 19 21 20 8 10 6 7 12
34 35 38 39 36 36 23 3 21 21 17 2 2 4 7 13 15 17 16 13 10 8 3 5 9 18 12 7 11 17 13 14 10 13 12 17 21 29 11 8 7 3 2 3
31 31 31 38 38 34 7 2 4 34 15 1 3 3 6 13 13 10 8 12 6 5 6 7 11 12 11 11 15 18 18 20 20 19 15 16 22 8 3 5 7 7 6 4
28 26 24 36 38 23 10 0 7 30 8 1 3 3 2 9 7 7 8 8 5 4 3 5 8 9 9 8 13 16 18 17 19 20 20 20 9 9 6 5 8 3 8 7
24 22 20 13 5 4 8 16 21 13 3 5 4 5 6 3 5 2 1 2 4 4 6 9 5 8 7 13 14 16 17 11 17 17 14 5 8 7 8 9 6 7 6 10
29 16 4 2 2 35 27 5 2 2 2 3 4 8 7 7 5 3 2 3 4 3 6 4 6 12 17 16 14 13 4 12 15 10 7 9 9 8 9 7 7 7 8 10
5 2 3 24 19 4 2 4 4 4 4 4 6 10 8 7 5 4 4 3 2 3 4 5 4 4 14 21 20 12 10 8 8 10 7 7 8 8 7 7 7 11 12 9
9 16 10 5 1 2 3 4 3 6 5 6 9 8 8 3 2 2 3 4 3 4 6 3 3 3 6 8 8 8 2 4 6 7 8 9 10 10 9 9 10 9 8 8
18 4 4 3 3 4 5 7 4 4 3 4 6 4 3 3 3 3 4 6 3 1 2 2 2 4 4 7 5 4 5 7 6 9 9 10 10 12 10 7 8 8 8 10
3 5 5 4 5 5 5 5 5 4 5 5 6 4 3 3 4 3 3 1 2 3 3 2 5 8 8 6 5 6 8 7 6 6 8 7 5 7 10 11 11 8 8 12
1 2 3 5 4 0 2 3 1 2 3 4 3 2 3 4 3 3 2 2 4 4 1 3 4 6 5 4 6 6 4 3 4 4 4 4 4 7 9 11 11 11 11 12
2 3 2 2 3 4 3 2 3 4 2 1 2 2 3 4 3 4 5 3 2 3 3 4 5 6 5 4 4 4 4 4 3 3 4 6 7 7 6 9 12 14 13 15
3 1 1 1 3 2 3 4 3 3 3 3 2 5 5 2 3 4 3 3 3 2 4 5 6 4 4 4 4 3 3 4 3 4 6 6 3 3 5 8 11 12 13 15

GFSNW_925_spd_171.txt.gz
Wind_Speed
20 18 18 18 18 18 17 6 3 4 13 6 3 11 8 10 16 9 3 5 16 14 5 9 6 5 12 11 7 8 2 4 4 3 13 4 1 1 3 3 6 1 2 3
21 21 19 20 22 24 14 4 3 5 8 5 11 6 10 12 17 14 6 5 4 1 1 3 7 7 7 14 14 4 7 4 4 7 1 10 5 4 7 3 3 4 5 2
23 21 21 20 22 28 20 3 3 2 3 2 8 10 12 17 16 20 13 5 2 3 1 6 5 10 5 8 5 9 7 5 4 3 6 4 5 11 9 3 2 5 3 4
26 23 23 21 22 23 18 3 4 4 4 7 11 10 7 13 12 4 4 8 12 5 4 2 2 6 7 7 9 4 5 5 8 13 17 12 12 16 9 8 9 8 16 12
29 27 25 24 21 30 7 3 3 4 2 5 13 15 16 18 12 4 4 4 2 5 2 2 2 3 1 4 3 6 5 5 5 5 13 13 16 13 13 13 12 16 16 18
32 32 30 25 28 29 5 7 1 1 4 5 5 4 8 6 2 2 6 4 4 4 1 6 7 7 8 12 11 7 1 4 6 7 5 8 6 13 12 11 13 8 9 17
35 34 32 32 34 33 11 8 4 2 4 5 5 5 9 9 10 5 2 5 4 4 6 3 5 9 13 15 19 14 10 11 10 10 8 8 8 8 11 10 12 10 12 11
41 38 39 37 36 36 21 12 4 3 3 5 6 7 3 4 5 6 6 3 4 8 5 3 5 3 7 12 18 19 20 14 6 4 4 8 12 8 3 11 14 11 9 7
43 41 40 39 36 36 28 19 14 3 3 4 8 7 6 3 1 1 3 5 2 3 3 3 3 3 4 5 5 4 19 18 11 2 4 6 1 6 6 9 7 13 3 6
44 43 41 40 39 38 34 12 20 4 2 4 4 2 2 3 2 1 4 3 3 4 3 2 3 5 6 6 6 4 2 3 12 10 8 6 7 14 10 5 5 15 12 6
45 45 41 40 40 38 34 21 17 10 2 5 2 2 0 1 3 3 3 4 3 2 1 3 4 3 4 5 11 12 6 2 3 3 5 6 17 17 8 8 14 10 6 4
44 45 43 40 40 40 35 7 22 18 2 3 7 8 10 5 3 4 2 5 4 4 2 2 1 2 3 3 3 7 4 3 3 2 3 3 6 11 5 8 9 9 11 8
42 44 42 40 40 39 38 13 20 11 2 4 1 6 12 11 9 1 4 2 5 5 3 2 3 2 0 2 4 7 3 8 3 9 7 14 11 9 13 15 14 13 11 7
42 43 41 39 39 38 36 19 16 16 3 2 5 15 15 23 13 13 7 4 7 2 2 2 3 2 3 3 5 7 5 8 6 6 9 15 5 13 13 16 16 15 6 4
40 41 38 36 38 36 31 19 15 22 4 1 3 11 12 18 21 16 13 10 4 1 0 1 3 3 2 4 3 10 4 8 6 9 10 8 15 13 21 12 13 19 16 4
38 38 33 37 36 34 24 2 15 17 9 2 3 4 5 9 20 14 6 5 4 4 3 3 4 6 4 3 5 7 4 8 8 9 14 14 14 15 19 16 20 18 0 5
32 29 34 36 36 31 6 4 4 27 11 2 2 3 3 11 8 4 3 6 3 4 3 4 6 7 5 4 9 13 13 13 14 13 13 15 15 12 13 21 4 4 3 3
28 28 35 35 34 22 4 3 11 29 8 1 1 3 3 3 3 1 1 3 2 2 3 2 4 2 5 7 12 15 16 15 14 15 8 14 11 20 18 17 4 3 4 4
23 23 33 18 10 3 6 5 27 14 4 4 3 2 3 1 2 2 3 0 3 3 4 3 3 4 7 8 10 11 11 8 8 7 11 11 14 18 8 6 6 7 7 1
30 19 5 3 7 33 24 4 2 2 1 1 3 3 3 4 1 2 1 2 3 2 5 3 4 7 14 10 10 7 9 5 7 9 10 10 3 6 7 11 9 8 7 6
5 2 2 18 21 6 1 2 2 3 3 4 4 6 3 1 3 3 3 2 3 3 2 4 3 3 6 12 17 11 6 8 12 15 3 11 8 9 8 9 10 9 9 9
8 15 10 4 2 2 4 4 4 4 5 4 4 4 5 2 3 1 2 3 2 5 1 2 3 3 6 9 4 7 4 4 5 12 12 11 11 10 9 7 7 7 8 10
7 4 3 2 1 2 4 6 3 3 3 3 4 1 4 2 2 1 1 4 4 0 2 2 2 4 8 10 9 13 11 10 10 10 10 10 8 10 8 5 7 9 10 12
3 4 3 3 3 4 4 4 3 5 3 3 4 2 3 2 2 2 4 4 1 2 2 1 1 5 5 7 8 9 8 7 7 7 6 5 5 6 13 12 13 9 8 12
1 1 3 4 3 1 1 1 2 1 3 4 3 3 3 2 2 3 3 2 3 3 3 2 1 5 5 5 6 6 5 5 6 5 5 5 7 7 7 10 10 10 10 12
1 2 1 0 2 2 1 1 1 1 1 3 3 2 2 5 3 4 5 3 1 1 2 2 2 4 5 5 5 5 4 5 5 5 6 8 6 4 6 10 12 12 12 14
3 1 1 0 1 3 5 3 2 2 3 2 3 3 7 3 3 3 3 2 3 2 2 2 5 4 3 3 4 3 4 4 4 5 4 2 4 5 6 5 8 12 13 17

GFSNW_925_spd_177.txt.gz
Wind_Speed
31 32 32 33 33 34 27 6 3 12 28 4 2 3 4 2 6 2 5 2 7 8 10 10 8 11 9 5 3 3 3 4 4 9 20 8 10 4 4 2 7 7 4 2
24 25 26 29 34 38 18 3 3 6 13 7 5 2 7 5 4 3 3 4 6 1 2 4 7 5 2 2 3 3 1 1 5 9 5 4 4 8 5 5 7 2 3 5
24 25 25 25 30 32 15 4 4 2 2 1 6 7 7 6 5 3 4 6 1 2 5 8 4 5 4 3 4 10 6 5 8 7 11 7 10 13 12 5 4 3 8 19
21 23 25 27 29 30 14 2 3 4 8 9 4 9 4 10 5 2 2 2 12 9 5 10 12 8 4 5 5 3 5 6 6 11 13 13 16 19 12 12 13 10 22 19
20 23 27 28 30 31 5 4 4 1 3 9 10 10 7 7 4 3 4 5 3 3 8 14 12 7 4 5 5 5 3 4 3 6 14 12 12 19 23 17 18 15 18 21
25 26 29 32 34 26 5 4 2 4 8 6 10 10 16 9 7 6 13 9 5 7 5 3 7 6 3 4 7 6 4 3 2 6 6 4 6 20 16 12 12 11 11 17
29 30 29 31 33 33 9 5 5 3 3 8 8 10 11 13 12 4 3 6 5 4 8 2 3 4 7 6 9 6 4 3 2 5 6 5 10 6 13 12 7 5 7 11
34 32 32 32 33 35 14 14 5 2 2 4 7 8 5 9 8 7 6 7 8 8 5 3 4 3 3 5 9 11 14 5 3 3 4 8 10 3 4 7 3 7 10 13
37 37 35 33 31 36 24 21 11 4 4 3 2 5 6 4 4 3 5 3 3 4 2 3 3 2 2 3 4 5 6 10 4 3 4 4 1 13 11 13 6 9 11 10
37 39 39 37 36 36 28 12 15 7 3 3 4 3 5 5 3 4 2 5 2 3 2 3 3 4 3 4 3 2 2 1 6 7 7 6 10 17 17 6 6 18 14 12
40 41 42 39 40 38 28 14 20 10 2 4 3 2 1 3 4 4 4 4 2 2 2 3 3 3 4 2 4 3 3 3 3 3 5 6 12 14 7 11 9 11 14 13
40 42 44 39 40 41 29 10 19 14 3 2 1 4 13 7 4 4 1 4 4 4 3 1 2 1 1 4 3 3 4 6 4 7 5 5 5 12 17 12 10 13 15 12
40 41 44 44 42 43 30 23 25 15 2 3 0 6 17 13 12 5 4 2 4 3 4 3 2 3 3 3 5 4 4 4 4 1 7 13 8 12 12 7 12 16 15 14
38 43 44 45 45 44 31 23 26 19 3 3 4 3 6 19 12 10 4 5 4 4 2 2 3 3 5 4 5 5 6 4 4 8 13 9 12 9 6 11 14 14 12 9
38 44 44 46 43 42 25 19 29 20 4 3 3 6 9 11 16 21 14 7 4 2 1 2 3 3 2 3 2 9 6 10 4 9 10 8 13 6 8 14 16 12 10 11
40 41 42 41 38 30 24 2 20 28 6 3 2 3 3 6 16 12 6 4 3 3 3 3 4 5 4 3 6 20 8 11 14 15 10 11 21 10 12 15 14 8 11 9
34 40 37 34 38 33 5 3 10 24 14 3 2 3 3 3 4 2 2 3 2 3 2 3 5 5 5 5 16 28 11 12 13 12 7 8 18 11 15 14 17 8 19 10
35 35 33 36 31 20 6 5 25 27 8 2 1 3 3 2 1 1 1 2 1 3 3 2 3 2 4 8 17 11 11 11 12 12 9 16 14 14 14 13 13 10 9 4
36 36 36 23 11 3 5 23 18 9 4 3 2 2 3 2 1 2 2 1 2 1 3 3 3 3 6 13 9 7 8 6 9 6 8 8 10 9 4 6 9 7 8 6
43 26 4 3 6 31 24 4 2 2 2 1 3 1 2 3 1 1 2 2 2 3 4 1 3 6 12 15 15 13 7 7 6 4 2 3 4 1 3 4 4 5 5 5
6 2 2 21 26 6 2 3 3 3 3 4 4 5 3 2 3 3 2 2 2 3 2 2 2 3 7 14 4 3 5 6 4 3 3 1 1 3 3 3 7 7 7 6
8 16 13 5 3 2 3 1 3 3 4 4 4 4 4 1 3 3 1 2 1 5 1 2 3 2 8 10 12 8 5 6 9 7 6 6 5 5 4 4 4 5 8 11
10 5 3 2 1 3 6 6 3 3 3 3 3 1 4 1 1 2 2 3 4 1 2 2 2 4 5 7 6 8 8 7 7 8 7 7 6 8 6 4 9 10 9 13
2 3 4 3 3 4 4 3 4 4 3 4 4 1 3 1 2 2 3 4 2 2 2 2 1 4 5 5 5 6 6 6 6 6 5 6 7 6 11 12 11 9 8 11
2 3 4 4 2 0 1 1 0 2 3 5 3 3 2 2 2 3 2 2 3 3 2 1 1 3 4 4 4 4 5 4 5 5 5 5 5 5 6 9 9 10 10 11
2 1 2 1 3 3 1 1 2 2 3 2 3 3 3 1 3 3 5 2 3 1 2 2 2 3 2 3 3 4 4 4 4 5 5 6 6 5 4 9 11 11 12 13
0 0 1 1 1 3 3 2 2 2 2 3 3 4 6 2 2 3 3 3 2 1 2 1 3 3 2 1 1 1 1 2 2 2 3 1 1 3 5 4 7 11 12 12